Rock Hill, SC

7:50 PM EDT on August 28, 2016 (GMT -0400)
Rock Hill-York County-Bryant

Weather History for KUZA - January, 2014

Change the Weather History Date:

Tuesday, January 21, 2014

  Actual Average Record
Temperature  
Mean Temperature 44 °F -  
Max Temperature 57 °F 50 °F 73 °F (1959)
Min Temperature 30 °F 29 °F -4 °F (1985)
Degree Days  
Heating Degree Days 22    
Moisture  
Dew Point 24 °F    
Average Humidity 52    
Maximum Humidity 76    
Minimum Humidity 36    
Precipitation  
Precipitation 0.00 in - - ()
Sea Level Pressure  
Sea Level Pressure 29.71 in    
Wind  
Wind Speed 9 mph (West)    
Max Wind Speed 22 mph    
Max Gust Speed 32 mph    
Visibility 10 miles    
Events      
Averages and records for this station are not official NWS values.
T = Trace of Precipitation, MM = Missing Value Source: NWS Daily Summary

Daily Weather History Graph

Daily Weather History Graph

Search for Another Location

Airport or City:

Trip Planner

Search our weather history database for the weather conditions in past years. The results will help you decide how hot, cold, wet, or windy it might be!

Date:

Astronomy

Jan. 21, 2014 Rise Set
Actual Time 7:29 AM EST 5:41 PM EST
Civil Twilight 7:02 AM EST 6:09 PM EST
Nautical Twilight 6:31 AM EST 6:39 PM EST
Astronomical Twilight 6:01 AM EST 7:10 PM EST
Moon 10:58 PM EST (1/21) 10:12 AM EST (1/21)
Length of Visible Light 11h 06m
Length of Day
10h 12m
Waning Gibbous, 75% of the Moon is Illuminated
Jan 21
Waning Gibbous
Jan 24
Last Quarter
Jan 30
New
Feb 6
First Quarter
Feb 14
Full

Hourly Weather History & Observations

Time (EST) Temp. Windchill Dew Point Humidity Pressure Visibility Wind Dir Wind Speed Gust Speed Precip Events Conditions
12:54 AM 39.0 °F 34.0 °F 24.1 °F 55% 29.80 in 10.0 mi SW 6.9 mph - N/A   Clear
1:54 AM 37.9 °F 32.1 °F 24.1 °F 57% 29.78 in 10.0 mi SW 8.1 mph - N/A   Clear
2:54 AM 37.0 °F 31.0 °F 24.1 °F 59% 29.76 in 10.0 mi SW 8.1 mph - N/A   Clear
3:54 AM 35.1 °F 29.3 °F 24.1 °F 64% 29.75 in 10.0 mi SW 6.9 mph - N/A   Clear
4:54 AM 33.1 °F 26.1 °F 25.0 °F 72% 29.73 in 10.0 mi SSW 8.1 mph - N/A   Clear
5:54 AM 30.9 °F 22.8 °F 24.1 °F 76% 29.72 in 10.0 mi SW 9.2 mph - N/A   Clear
6:54 AM 37.0 °F 34.5 °F 24.1 °F 59% 29.70 in 10.0 mi WSW 3.5 mph - N/A   Clear
7:54 AM 33.1 °F 28.7 °F 26.1 °F 75% 29.70 in 10.0 mi SSW 4.6 mph - N/A   Clear
8:54 AM 39.0 °F 35.7 °F 28.0 °F 65% 29.68 in 10.0 mi SSW 4.6 mph - N/A   Partly Cloudy
9:54 AM 46.9 °F - 28.0 °F 48% 29.65 in 10.0 mi SW 8.1 mph - N/A   Scattered Clouds
10:54 AM 53.1 °F - 28.0 °F 38% 29.63 in 10.0 mi West 10.4 mph - N/A   Mostly Cloudy
11:54 AM 52.0 °F - 28.9 °F 41% 29.60 in 10.0 mi West 8.1 mph - N/A   Overcast
12:54 PM 57.0 °F - 30.0 °F 36% 29.56 in 10.0 mi WSW 6.9 mph - N/A   Clear
1:54 PM 55.0 °F - 30.0 °F 38% 29.54 in 10.0 mi NNE 10.4 mph - N/A   Mostly Cloudy
2:54 PM 52.0 °F - 28.0 °F 40% 29.55 in 10.0 mi North 12.7 mph - N/A   Overcast
3:54 PM 48.9 °F - 28.9 °F 46% 29.60 in 10.0 mi NNW 15.0 mph 19.6 mph 0.00 in   Overcast
4:54 PM 46.0 °F 39.9 °F 24.1 °F 42% 29.67 in 10.0 mi NW 13.8 mph 21.9 mph 0.00 in   Overcast
5:54 PM 44.1 °F 37.1 °F 21.9 °F 42% 29.70 in 10.0 mi NNW 15.0 mph 21.9 mph N/A   Overcast
6:54 PM 41.0 °F 31.4 °F 19.0 °F 41% 29.75 in 10.0 mi NW 21.9 mph 32.2 mph N/A   Clear
7:54 PM 37.9 °F 30.0 °F 21.0 °F 51% 29.78 in 10.0 mi NNW 12.7 mph - N/A   Clear
8:54 PM 37.0 °F 29.3 °F 19.0 °F 48% 29.80 in 10.0 mi NNW 11.5 mph - N/A   Clear
9:54 PM 35.1 °F 27.9 °F 18.0 °F 50% 29.83 in 10.0 mi NNW 9.2 mph - N/A   Clear
10:54 PM 33.1 °F 23.0 °F 18.0 °F 54% 29.84 in 10.0 mi North 15.0 mph 20.7 mph N/A   Clear
11:54 PM 32.0 °F 22.1 °F 14.0 °F 48% 29.87 in 10.0 mi North 13.8 mph 25.3 mph N/A   Clear